Springfield, IL

3:07 PM CST on February 25, 2017 (GMT -0600)
Capital

Weather History for KSPI - July, 2014

Change the Weather History Date:

Thursday, July 24, 2014

  Actual Average Record
Temperature  
Mean Temperature 69 °F 76 °F  
Max Temperature 81 °F 86 °F 107 °F (1934)
Min Temperature 57 °F 65 °F 50 °F (2000)
Degree Days  
Heating Degree Days 0 0  
Month to date heating degree days 3 0  
Since 1 June heating degree days 3 15  
Since 1 July heating degree days 3 0  
Cooling Degree Days 4 11  
Month to date cooling degree days 172 264  
Year to date cooling degree days 654 608  
Since 1 June cooling degree days 478 504  
Growing Degree Days 18 (Base 50)    
Moisture  
Dew Point 55 °F    
Average Humidity 63    
Maximum Humidity 86    
Minimum Humidity 39    
Precipitation  
Precipitation 0.00 in 0.13 in 3.27 in (2016)
Month to date precipitation 1.07 3.12  
Year to date precipitation 24.23 21.59  
Snow  
Snow 0.00 in 0.00 in 0.00 in ()
Month to date snowfall 0.0 0.0  
Since 1 June snowfall 0.0 0.0  
Since 1 July snowfall 0.0 0.0  
Snow Depth 0.00 in    
Sea Level Pressure  
Sea Level Pressure 30.11 in    
Wind  
Wind Speed 6 mph (NE)    
Max Wind Speed 16 mph    
Max Gust Speed 21 mph    
Visibility 10 miles    
Events      
T = Trace of Precipitation, MM = Missing Value Source: NWS Daily Summary

Daily Weather History Graph

Daily Weather History Graph

Search for Another Location

Airport or City:

Trip Planner

Search our weather history database for the weather conditions in past years. The results will help you decide how hot, cold, wet, or windy it might be!

Date:

Astronomy

Jul. 24, 2014 Rise Set
Actual Time 5:50 AM CDT 8:19 PM CDT
Civil Twilight 5:19 AM CDT 8:50 PM CDT
Nautical Twilight 4:40 AM CDT 9:28 PM CDT
Astronomical Twilight 3:58 AM CDT 10:11 PM CDT
Moon 3:58 AM CDT (7/24) 6:34 PM CDT (7/24)
Length of Visible Light 15h 31m
Length of Day
14h 29m
Waning Crescent, 5% of the Moon is Illuminated
Jul 24
Waning Crescent
Jul 26
New
Aug 3
First Quarter
Aug 10
Full
Aug 17
Last Quarter

Hourly Weather History & Observations

Time (CDT) Temp. Heat Index Dew Point Humidity Pressure Visibility Wind Dir Wind Speed Gust Speed Precip Events Conditions
12:52 AM 61.0 °F - 54.0 °F 78% 30.13 in 10.0 mi NE 3.5 mph - N/A   Clear
1:52 AM 57.0 °F - 54.0 °F 89% 30.12 in 10.0 mi Calm Calm - N/A   Clear
2:52 AM 57.0 °F - 54.0 °F 89% 30.11 in 10.0 mi North 3.5 mph - N/A   Clear
3:52 AM 57.0 °F - 53.1 °F 87% 30.11 in 10.0 mi NNW 6.9 mph - N/A   Clear
4:52 AM 57.0 °F - 53.1 °F 87% 30.13 in 10.0 mi North 6.9 mph - N/A   Clear
5:52 AM 57.0 °F - 52.0 °F 83% 30.14 in 10.0 mi North 8.1 mph - N/A   Clear
6:52 AM 59.0 °F - 52.0 °F 78% 30.16 in 10.0 mi North 5.8 mph - N/A   Clear
7:52 AM 62.1 °F - 54.0 °F 75% 30.16 in 10.0 mi NNE 6.9 mph - N/A   Clear
8:52 AM 66.0 °F - 55.9 °F 70% 30.16 in 10.0 mi NE 11.5 mph - N/A   Clear
9:52 AM 71.1 °F - 57.9 °F 63% 30.15 in 10.0 mi ENE 9.2 mph - N/A   Clear
10:52 AM 73.0 °F - 55.9 °F 55% 30.15 in 10.0 mi NE 9.2 mph - N/A   Clear
11:52 AM 75.9 °F - 54.0 °F 46% 30.14 in 10.0 mi NE 12.7 mph - N/A   Clear
12:52 PM 77.0 °F - 54.0 °F 45% 30.14 in 10.0 mi North 10.4 mph - N/A   Clear
1:52 PM 78.1 °F - 53.1 °F 42% 30.13 in 10.0 mi ENE 9.2 mph - N/A   Clear
2:52 PM 79.0 °F - 53.1 °F 40% 30.10 in 10.0 mi North 9.2 mph - N/A   Clear
3:52 PM 80.1 °F 79.9 °F 53.1 °F 39% 30.07 in 10.0 mi NE 11.5 mph - N/A   Clear
4:52 PM 79.0 °F - 55.0 °F 44% 30.06 in 10.0 mi ENE 8.1 mph - N/A   Clear
5:52 PM 78.1 °F - 54.0 °F 43% 30.07 in 10.0 mi ENE 5.8 mph - N/A   Clear
6:52 PM 77.0 °F - 55.9 °F 48% 30.08 in 10.0 mi NE 4.6 mph - N/A   Clear
7:52 PM 73.0 °F - 57.9 °F 59% 30.08 in 10.0 mi Calm Calm - N/A   Clear
8:52 PM 70.0 °F - 57.0 °F 63% 30.06 in 10.0 mi ENE 3.5 mph - N/A   Clear
9:52 PM 62.1 °F - 57.9 °F 86% 30.07 in 10.0 mi Calm Calm - N/A   Clear
10:52 PM 61.0 °F - 55.9 °F 83% 30.03 in 10.0 mi Calm Calm - N/A   Clear
11:52 PM 63.0 °F - 55.9 °F 78% 30.02 in 10.0 mi ESE 6.9 mph - N/A   Clear